Content
SEND FEEDBACK

Daily
Averages
Monthly
Summary
United Kingdom

CARDIFF, WALES


Home > Europe > United Kingdom > Wales
Elevation: 220 feet     Latitude: 51 24N     Longitude: 003 21W

WEATHER
 
SELECT A DAY
Number of Records: 275,131;   Date Range: 7/1/96 - 7/31/14
 
SHARE

PRINT THIS DATA

[ ← Previous Day ]
WEATHER ALMANAC - FEBRUARY 10, 2013
[ Next Day → ]
[ °C ]   °F
Weather ElementAverageHighLow
Temperature42.5 °F44.6 °F (11:50 am)39.2 °F (8:20 pm)
Dewpoint41.9 °F44.6 °F (11:50 am)37.4 °F (7:50 pm)
Humidity97.8 %100 % (12:50 am)87 % (7:50 pm)
Barometer29.37 in29.80 in (12:50 am)29.18 in (2:50 pm)
Wind Speed11.8 mph23 mph (3:50 pm)
Wind Gust34.5 mph (3:50 pm)
Weather ElementAverage
Visibility3.9 mi
Wind DirectionSSW (187.2 °)

Weather ElementTotal
Precipitation---
Heating Degree Days23.1 (Base 65)
Averaged from 47 records on February 10, 2013
WEATHER CONDITIONS BREAKOUT
WIND DIRECTION BREAKOUT
WEATHER BY HOUR - FEBRUARY 10, 2013
[ °C ]   °F
Local TimeTemperatureDewpointHumidityBarometerVisibilityWind DirectionWind SpeedGust SpeedPrecipitationEventsConditions
12:50 AM42.8 °F42.8 °F100 %29.80 in6.2 miSE (130°)5.8 mphMostly Cloudy
1:20 AM42.8 °F42.8 °F100 %29.77 in6.2 miEast (100°)6.9 mphScattered Clouds
1:50 AM42.8 °F41.0 °F93 %29.74 in2.2 miESE (120°)8.1 mphScattered Clouds
2:20 AM42.8 °F41.0 °F93 %29.74 in1.3 miESE (110°)6.9 mphMostly Cloudy
2:50 AM42.8 °F42.8 °F100 %29.71 in1.9 miSE (130°)6.9 mphMostly Cloudy
3:20 AM42.8 °F42.8 °F100 %29.68 in0.6 miESE (120°)11.5 mphMostly Cloudy
3:50 AM42.8 °F42.8 °F100 %29.65 inSE (130°)9.2 mphFogLight Drizzle
4:20 AM42.8 °F42.8 °F100 %29.62 in0.5 miSE (130°)6.9 mphFogLight Drizzle
4:50 AM42.8 °F42.8 °F100 %29.59 in0.3 miSE (130°)10.4 mphFogLight Drizzle
5:20 AM42.8 °F42.8 °F100 %29.56 in0.5 miESE (120°)11.5 mphFogLight Drizzle
5:50 AM42.8 °F42.8 °F100 %29.53 in1.9 miESE (120°)13.8 mphLight Drizzle
6:20 AM42.8 °F42.8 °F100 %29.53 in1.6 miESE (120°)13.8 mphRainRain
6:50 AM42.8 °F42.8 °F100 %29.50 in1.6 miESE (120°)13.8 mphRainRain
7:20 AM42.8 °F42.8 °F100 %29.47 in2.2 miESE (110°)13.8 mphRainRain
7:50 AM42.8 °F42.8 °F100 %29.44 in1.9 miESE (110°)15.0 mphRainRain
8:20 AM42.8 °F42.8 °F100 %29.44 in2.2 miEast (100°)16.1 mphRainRain
8:50 AM42.8 °F42.8 °F100 %29.42 in1.9 miEast (100°)16.1 mphRainRain
9:20 AM42.8 °F42.8 °F100 %29.39 inESE (110°)16.1 mphRainRain
9:50 AM42.8 °F42.8 °F100 %29.36 in3.1 miESE (110°)17.3 mphRainRain
10:20 AM42.8 °F42.8 °F100 %29.36 in1.7 miESE (110°)11.5 mphRainRain
10:50 AM42.8 °F42.8 °F100 %29.33 in3.1 miEast (100°)9.2 mphRainLight Rain
11:20 AM42.8 °F42.8 °F100 %29.30 in1.4 miESE (110°)13.8 mphDrizzle
11:50 AM44.6 °F44.6 °F100 %29.30 in0.2 miESE (110°)10.4 mphFogDrizzle
12:20 PM44.6 °F44.6 °F100 %29.27 in6.2 miSE (130°)8.1 mphRainRain
12:50 PM44.6 °F44.6 °F100 %29.24 in6.2 miSE (130°)12.7 mphMostly Cloudy
1:20 PM44.6 °F44.6 °F100 %29.24 in6.2 miESE (120°)13.8 mphMostly Cloudy
1:50 PM44.6 °F44.6 °F100 %29.21 in6.2 miESE (120°)12.7 mphMostly Cloudy
2:20 PM44.6 °F44.6 °F100 %29.21 inSE (130°)10.4 mphLight Drizzle
2:50 PM44.6 °F44.6 °F100 %29.18 in0.9 miSouth (170°)5.8 mphDrizzle
3:20 PM44.6 °F44.6 °F100 %29.18 in3.1 miWest (260°)4.6 mphRainLight Rain
3:50 PM42.8 °F42.8 °F100 %29.18 in3.1 miWest (280°)23.0 mph34.5 mphRainRain
4:20 PM42.8 °F41.0 °F93 %29.18 in5.0 miWNW (300°)21.9 mphRainLight Rain
4:50 PM42.8 °F41.0 °F93 %29.18 in6.2 miNW (320°)20.7 mphRainLight Rain
5:20 PM42.8 °F41.0 °F93 %29.21 in6.2 miWest (280°)10.4 mphRainRain
5:50 PM42.8 °F41.0 °F93 %29.21 in5.0 miWNW (300°)16.1 mphRainRain
6:20 PM42.8 °F41.0 °F93 %29.21 in6.2 miWNW (300°)15.0 mphRainLight Rain
6:50 PM41.0 °F41.0 °F100 %29.21 in6.2 miWNW (290°)13.8 mphRainLight Rain
7:20 PM41.0 °F39.2 °F93 %29.21 in6.2 miNW (320°)15.0 mphScattered Clouds
7:50 PM41.0 °F37.4 °F87 %29.21 in6.2 miNW (310°)16.1 mphMostly Cloudy
8:20 PM39.2 °F37.4 °F93 %29.21 in6.2 miWNW (300°)13.8 mphMostly Cloudy
8:50 PM39.2 °F37.4 °F93 %29.24 in6.2 miNW (310°)15.0 mphMostly Cloudy
9:20 PM39.2 °F39.2 °F100 %29.24 in6.2 miWNW (300°)6.9 mphMostly Cloudy
9:50 PM41.0 °F39.2 °F93 %29.24 in6.2 miNW (310°)9.2 mphMostly Cloudy
10:20 PM41.0 °F39.2 °F93 %29.24 in6.2 miWNW (290°)8.1 mphMostly Cloudy
10:50 PM39.2 °F39.2 °F100 %29.27 in6.2 miWest (280°)6.9 mphScattered Clouds
11:20 PM39.2 °F39.2 °F100 %29.27 in6.2 miWest (280°)5.8 mphPartly Cloudy
11:50 PM39.2 °F37.4 °F93 %29.27 in6.2 miNW (320°)5.8 mph
Hourly data recorded from EGFF, located miles away from Cardiff, Wales







STORIES FROM OUR PARTNERS